Weather History for North Adams, MA

Change the Weather History Date:

Sunday, May 12, 2013

  Actual Average Record
Temperature  
Mean Temperature 52 °F -  
Max Temperature 61 °F 64 °F 84 °F (2004)
Min Temperature 43 °F 41 °F 32 °F (2005)
Degree Days  
Heating Degree Days 14    
Growing Degree Days 2 (Base 50)    
Moisture  
Dew Point 36 °F    
Average Humidity 55    
Maximum Humidity 77    
Minimum Humidity 25    
Precipitation  
Precipitation 0.00 in - - ()
Sea Level Pressure  
Sea Level Pressure 29.72 in    
Wind  
Wind Speed 5 mph (West)    
Max Wind Speed 15 mph    
Max Gust Speed 23 mph    
Visibility 10 miles    
Events      
Averages and records for this station are not official NWS values.
T = Trace of Precipitation, MM = Missing Value Source: NWS Daily Summary

Daily Weather History Graph

Daily Weather History Graph

Search for Another Location

Airport:

Trip Planner

Search our weather history database for the weather conditions in past years. The results will help you decide how hot, cold, wet, or windy it might be!

Date:

Astronomy

May. 12, 2013 Rise Set
Actual Time 5:33 AM EDT 8:05 PM EDT
Civil Twilight 5:01 AM EDT 8:37 PM EDT
Nautical Twilight 4:21 AM EDT 9:17 PM EDT
Astronomical Twilight 3:36 AM EDT 10:03 PM EDT
Moon 7:25 AM EDT (5/12) 10:31 PM EDT (5/12)
Length of Visible Light 15h 36m
Length of Day
14h 32m
Waxing Crescent, 6% of the Moon is Illuminated
May 12
Waxing Crescent
May 18
First Quarter
May 25
Full
May 31
Last Quarter
Jun 8
New

Hourly Weather History & Observations

Time (EDT) Temp. Windchill Dew Point Humidity Pressure Visibility Wind Dir Wind Speed Gust Speed Precip Events Conditions
1:52 AM 55.0 °F - 46.9 °F 74% 29.70 in 10.0 mi WSW 5.8 mph - N/A   Overcast
2:52 AM 54.0 °F - 46.0 °F 75% 29.69 in 10.0 mi Calm Calm - N/A   Overcast
3:52 AM 53.1 °F - 46.0 °F 77% 29.68 in 10.0 mi West 4.6 mph - N/A   Overcast
4:52 AM 53.1 °F - 45.0 °F 74% 29.68 in 10.0 mi West 3.5 mph - N/A   Overcast
5:52 AM 52.0 °F - 44.1 °F 74% 29.69 in 10.0 mi West 4.6 mph - N/A   Overcast
6:52 AM 52.0 °F - 43.0 °F 71% 29.70 in 10.0 mi West 3.5 mph - N/A   Overcast
7:52 AM 52.0 °F - 43.0 °F 71% 29.69 in 10.0 mi Calm Calm - N/A   Overcast
8:52 AM 55.9 °F - 41.0 °F 57% 29.68 in 10.0 mi North 3.5 mph - N/A   Partly Cloudy
9:52 AM 59.0 °F - 41.0 °F 51% 29.67 in 10.0 mi West 4.6 mph - N/A   Mostly Cloudy
10:52 AM 59.0 °F - 41.0 °F 51% 29.65 in 10.0 mi Variable 5.8 mph - N/A   Overcast
11:52 AM 57.0 °F - 39.9 °F 53% 29.65 in 10.0 mi West 9.2 mph - N/A   Overcast
12:30 PM 51.8 °F - 37.4 °F 58% 29.68 in 10.0 mi West 8.1 mph - N/A   Overcast
12:52 PM 50.0 °F - 37.0 °F 61% 29.70 in 10.0 mi West 8.1 mph 18.4 mph N/A   Overcast
1:52 PM 48.0 °F - 34.0 °F 58% 29.74 in 10.0 mi West 9.2 mph 16.1 mph N/A   Overcast
2:52 PM 46.9 °F - 35.1 °F 63% 29.73 in 10.0 mi SSW 4.6 mph - 0.00 in   Overcast
3:52 PM 52.0 °F - 36.0 °F 54% 29.70 in 10.0 mi West 5.8 mph - N/A   Clear
4:52 PM 55.0 °F - 28.0 °F 35% 29.70 in 10.0 mi West 10.4 mph 19.6 mph N/A   Partly Cloudy
5:52 PM 55.9 °F - 24.1 °F 29% 29.71 in 10.0 mi WNW 11.5 mph 21.9 mph N/A   Partly Cloudy
6:52 PM 54.0 °F - 19.0 °F 25% 29.73 in 10.0 mi West 15.0 mph 23.0 mph N/A   Clear
7:52 PM 50.0 °F - 24.1 °F 36% 29.77 in 10.0 mi West 5.8 mph - N/A   Mostly Cloudy
8:52 PM 48.0 °F - 26.1 °F 42% 29.80 in 10.0 mi Variable 4.6 mph - 0.00 in   Overcast
9:52 PM 46.9 °F - 25.0 °F 42% 29.82 in 10.0 mi West 6.9 mph - N/A   Scattered Clouds
10:52 PM 44.1 °F 41.5 °F 25.0 °F 47% 29.84 in 10.0 mi West 4.6 mph - N/A   Clear
11:52 PM 43.0 °F 37.2 °F 25.0 °F 49% 29.87 in 10.0 mi West 10.4 mph - N/A   Scattered Clouds